User: anonymous   Login
Location: Newark
(45.8667°N, 9.7333°E)
Time: 09:41:48
(UTC+00:00)
Language:

Courier 1B Rocket - Orbit

View from above orbital plane
View from above orbital plane
View from above satellite
View from above satellite

Ground track
Ground track

The orbit data is extracted from the following two-line orbital elements,

1 00059U 60013B   21016.85210690  .00000090  00000-0 -10355-6 0  9995
2 00059  28.2473 202.0214 0189291 277.2875  80.6192 13.52982346975461
Epoch (UTC): 16 January 2021 20:27:02
Eccentricity: 0.0189291
inclination: 28.2473°
perigee height: 920 km
apogee height: 1202 km
right ascension of ascending node: 202.0214°
argument of perigee: 277.2875°
revolutions per day: 13.52982346
mean anomaly at epoch: 80.6192°
orbit number at epoch: 97546

The dashed part of the orbit path shows where the satellite is in the earth's shadow,  

DLR